Date String (YYYY-MM-DD hh:mm:ss) UTC,Instrument flags,Ambient pressure (hPa),Sample flow (lpm),Bypass flow (lpm),Sample temperature (°C),Ambient temperature (°C),ASC tube jacket temperature (°C),LED temperature (°C),Box temperature (°C),Sample RH (%),Span deviation,Mass concentration (μg/m³),Mass concentration (μg/m³),Mass concentration (μg/m³)
DateTimeUTC,F1_M11,P_M11,Q1_M11,Q2_M11,T1_M11,T2_M11,T3_M11,T4_M11,T5_M11,U1_M11,ZSPAN_M11,X0_M11,X2_M11,X1_M11
2022-04-08 15:00:00,,0832.1,5.01,0.00,23.1,22.2,00.0,31.9,24.9,09.4,0000.0,0007.96,0002.69,0001.52
2022-04-08 15:01:00,,0832.1,5.00,0.00,23.1,22.2,00.0,31.9,24.9,09.2,0000.0,0007.79,0002.65,0001.52
2022-04-08 15:02:00,,0832.1,4.99,0.00,23.1,22.2,00.0,31.9,24.9,09.3,0000.0,0007.35,0002.63,0001.52
2022-04-08 15:03:00,,0832.1,5.01,0.00,23.1,22.3,00.0,32.0,24.9,09.2,0000.0,0007.11,0002.72,0001.52
2022-04-08 15:04:00,,0832.1,4.98,0.00,23.1,22.3,00.0,32.0,25.0,09.1,0000.0,0006.68,0002.74,0001.52
2022-04-08 15:05:00,,0832.1,5.00,0.00,23.1,22.3,00.0,32.0,24.9,09.1,0000.0,0007.72,0002.77,0001.51
2022-04-08 15:06:00,,0832.1,5.01,0.00,23.2,22.3,00.0,32.0,25.0,09.3,0000.0,0008.06,0002.82,0001.51
2022-04-08 15:07:00,,0832.1,5.00,0.00,23.2,22.3,00.0,32.0,25.0,09.4,0000.0,0008.39,0002.88,0001.51
2022-04-08 15:08:00,,0832.1,5.01,0.00,23.2,22.3,00.0,32.0,25.0,09.6,0000.0,0008.43,0002.99,0001.53
2022-04-08 15:09:00,,0832.1,4.99,0.00,23.2,22.3,00.0,32.0,25.0,09.8,0000.0,0008.43,0003.00,0001.54
2022-04-08 15:10:00,,0832.1,5.01,0.00,23.2,22.3,00.0,32.0,25.0,09.6,0000.0,0008.41,0002.95,0001.52
2022-04-08 15:11:00,,0832.1,5.00,0.00,23.2,22.3,00.0,32.0,25.0,09.5,0000.0,0008.31,0002.95,0001.51
2022-04-08 15:12:00,,0832.1,4.99,0.00,23.2,22.3,00.0,32.1,25.0,09.6,0000.0,0008.31,0002.97,0001.51
2022-04-08 15:13:00,,0832.1,5.01,0.00,23.2,22.3,00.0,32.1,25.0,09.4,0000.0,0008.35,0002.99,0001.52
2022-04-08 15:14:00,,0832.1,5.00,0.00,23.2,22.3,00.0,32.1,25.0,09.4,0000.0,0009.07,0002.96,0001.52
2022-04-08 15:15:00,,0832.1,4.99,0.00,23.2,22.3,00.0,32.1,25.0,09.5,0000.0,0009.63,0002.99,0001.52
2022-04-08 15:16:00,,0832.0,4.99,0.00,23.2,22.4,00.0,32.1,25.0,09.7,0000.0,0008.93,0002.99,0001.52
2022-04-08 15:17:00,,0832.1,5.00,0.00,23.2,22.4,00.0,32.1,25.0,09.8,0000.0,0008.52,0002.99,0001.52
2022-04-08 15:18:00,,0832.1,5.00,0.00,23.2,22.4,00.0,32.1,25.0,10.0,0000.0,0008.30,0002.97,0001.52
2022-04-08 15:19:00,,0832.1,5.01,0.00,23.2,22.4,00.0,32.1,25.0,09.4,0000.0,0008.19,0002.91,0001.51
2022-04-08 15:20:00,,0832.1,5.00,0.00,23.3,22.4,00.0,32.1,25.0,09.5,0000.0,0008.22,0002.90,0001.52
2022-04-08 15:21:00,,0832.1,5.00,0.00,23.3,22.4,00.0,32.1,25.0,09.5,0000.0,0008.32,0002.95,0001.52
2022-04-08 15:22:00,,0832.1,5.00,0.00,23.3,22.4,00.0,32.1,25.1,09.4,0000.0,0008.92,0002.91,0001.50
2022-04-08 15:23:00,,0832.1,4.99,0.00,23.3,22.4,00.0,32.1,25.1,09.4,0000.0,0008.96,0002.90,0001.50
2022-04-08 15:24:00,,0832.1,4.99,0.00,23.3,22.4,00.0,32.1,25.1,09.5,0000.0,0009.06,0002.93,0001.49
2022-04-08 15:25:00,,0832.1,5.00,0.00,23.3,22.4,00.0,32.2,25.1,09.6,0000.0,0008.49,0002.92,0001.49
2022-04-08 15:26:00,,0832.1,5.01,0.00,23.3,22.4,00.0,32.2,25.1,09.5,0000.0,0008.02,0002.90,0001.49
2022-04-08 15:27:00,,0832.1,5.01,0.00,23.3,22.4,00.0,32.2,25.1,09.5,0000.0,0009.06,0002.88,0001.49
2022-04-08 15:28:00,,0832.1,5.00,0.00,23.3,22.4,00.0,32.2,25.1,09.7,0000.0,0009.06,0002.87,0001.49
2022-04-08 15:29:00,,0832.1,5.00,0.00,23.3,22.5,00.0,32.2,25.1,09.5,0000.0,0009.16,0002.88,0001.49
2022-04-08 15:30:00,,0832.1,5.00,0.00,23.3,22.5,00.0,32.2,25.1,09.5,0000.0,0009.80,0002.90,0001.48
2022-04-08 15:31:00,,0832.1,5.00,0.00,23.3,22.5,00.0,32.2,25.1,09.2,0000.0,0010.05,0002.96,0001.47
2022-04-08 15:32:00,,0832.1,5.00,0.00,23.3,22.5,00.0,32.2,25.1,09.1,0000.0,0010.29,0002.99,0001.49
2022-04-08 15:33:00,,0832.1,4.99,0.00,23.3,22.5,00.0,32.2,25.1,08.9,0000.0,0009.77,0002.99,0001.50
2022-04-08 15:34:00,,0832.1,4.99,0.00,23.4,22.5,00.0,32.2,25.1,08.8,0000.0,0009.73,0002.99,0001.50
2022-04-08 15:35:00,,0832.1,5.00,0.00,23.4,22.5,00.0,32.2,25.2,08.7,0000.0,0010.07,0002.94,0001.51
2022-04-08 15:36:00,,0832.1,5.00,0.00,23.4,22.6,00.0,32.2,25.2,08.8,0000.0,0010.68,0002.89,0001.50
2022-04-08 15:37:00,,0832.1,5.00,0.00,23.4,22.6,00.0,32.2,25.2,08.5,0000.0,0010.44,0002.81,0001.48
2022-04-08 15:38:00,,0832.1,5.01,0.00,23.4,22.6,00.0,32.2,25.2,08.4,0000.0,0009.40,0002.75,0001.45
2022-04-08 15:39:00,,0832.1,5.00,0.00,23.4,22.6,00.0,32.3,25.2,08.5,0000.0,0009.21,0002.72,0001.44
2022-04-08 15:40:00,,0832.1,5.00,0.00,23.5,22.6,00.0,32.3,25.3,08.3,0000.0,0009.02,0002.70,0001.43
2022-04-08 15:41:00,,0832.0,4.99,0.00,23.5,22.6,00.0,32.3,25.3,08.2,0000.0,0008.40,0002.63,0001.43
2022-04-08 15:42:00,,0832.1,4.99,0.00,23.5,22.7,00.0,32.3,25.3,08.0,0000.0,0007.83,0002.53,0001.41
2022-04-08 15:43:00,,0832.1,5.00,0.00,23.5,22.7,00.0,32.3,25.3,08.0,0000.0,0007.75,0002.42,0001.36
2022-04-08 15:44:00,,0832.1,5.01,0.00,23.5,22.7,00.0,32.3,25.3,07.9,0000.0,0008.33,0002.43,0001.34
2022-04-08 15:45:00,,0832.1,5.00,0.00,23.5,22.7,00.0,32.4,25.3,07.9,0000.0,0008.69,0002.42,0001.32
2022-04-08 15:46:00,,0832.1,5.00,0.00,23.5,22.7,00.0,32.4,25.3,07.8,0000.0,0008.44,0002.38,0001.29
2022-04-08 15:47:00,,0832.1,5.00,0.00,23.5,22.6,00.0,32.4,25.2,07.6,0000.0,0007.62,0002.36,0001.28
2022-04-08 15:48:00,,0832.1,4.99,0.00,23.5,22.6,00.0,32.4,25.2,07.6,0000.0,0007.55,0002.38,0001.27
2022-04-08 15:49:00,,0832.0,5.00,0.00,23.5,22.6,00.0,32.4,25.2,07.8,0000.0,0007.97,0002.34,0001.27
2022-04-08 15:50:00,,0832.0,5.01,0.00,23.5,22.6,00.0,32.4,25.2,07.9,0000.0,0008.21,0002.35,0001.26
2022-04-08 15:51:00,,0832.0,5.00,0.00,23.5,22.6,00.0,32.4,25.2,07.7,0000.0,0008.27,0002.39,0001.24
2022-04-08 15:52:00,,0832.0,4.99,0.00,23.5,22.7,00.0,32.4,25.3,07.6,0000.0,0008.34,0002.40,0001.23
2022-04-08 15:53:00,,0831.9,4.99,0.00,23.5,22.7,00.0,32.4,25.3,07.7,0000.0,0008.78,0002.43,0001.23
2022-04-08 15:54:00,,0831.9,5.00,0.00,23.5,22.7,00.0,32.4,25.3,07.8,0000.0,0008.70,0002.45,0001.23
2022-04-08 15:55:00,,0832.0,5.00,0.00,23.5,22.7,00.0,32.4,25.3,07.8,0000.0,0007.87,0002.38,0001.24
2022-04-08 15:56:00,,0832.0,5.00,0.00,23.5,22.7,00.0,32.4,25.3,07.8,0000.0,0007.49,0002.33,0001.25
2022-04-08 15:57:00,,0832.0,5.00,0.00,23.5,22.7,00.0,32.4,25.3,07.9,0000.0,0007.57,0002.37,0001.25
2022-04-08 15:58:00,,0832.0,5.00,0.00,23.5,22.7,00.0,32.4,25.3,07.7,0000.0,0007.45,0002.34,0001.26
2022-04-08 15:59:00,,0831.9,5.00,0.00,23.5,22.7,00.0,32.4,25.3,07.8,0000.0,0007.37,0002.34,0001.26
